Ord, NE

12:36 AM CDT on May 23, 2017 (GMT -0500)
Sharp

Weather History for KODX - December, 2013

Change the Weather History Date:

Thursday, December 19, 2013

  Actual Average Record
Temperature  
Mean Temperature 23 °F 24 °F  
Max Temperature 37 °F 35 °F 46 °F (2002)
Min Temperature 8 °F 12 °F -4 °F (1996)
Degree Days  
Heating Degree Days 42 41  
Month to date heating degree days 672 744  
Since 1 July heating degree days 2152 2225  
Cooling Degree Days 0 0  
Month to date cooling degree days 0 0  
Year to date cooling degree days 907 845  
Moisture  
Dew Point 15 °F    
Average Humidity 76    
Maximum Humidity 88    
Minimum Humidity 64    
Precipitation  
Precipitation T in 0.01 in 0.58 in (1952)
Month to date precipitation T 0.47  
Year to date precipitation 24.35 24.82  
Sea Level Pressure  
Sea Level Pressure 29.89 in    
Wind  
Wind Speed 15 mph (North)    
Max Wind Speed 23 mph    
Max Gust Speed 29 mph    
Visibility 9 miles    
Events Snow    
T = Trace of Precipitation, MM = Missing Value Source: NWS Daily Summary

Daily Weather History Graph

Daily Weather History Graph

Search for Another Location

Airport or City:

Trip Planner

Search our weather history database for the weather conditions in past years. The results will help you decide how hot, cold, wet, or windy it might be!

Date:

Astronomy

Dec. 19, 2013 Rise Set
Actual Time 7:58 AM CST 5:07 PM CST
Civil Twilight 7:26 AM CST 5:39 PM CST
Nautical Twilight 6:51 AM CST 6:14 PM CST
Astronomical Twilight 6:17 AM CST 6:48 PM CST
Moon 7:36 PM CST (12/19) 9:16 AM CST (12/19)
Length of Visible Light 10h 12m
Length of Day
9h 09m
Waning Gibbous, 95% of the Moon is Illuminated
Dec 19
Waning Gibbous
Dec 25
Last Quarter
Jan 1
New
Jan 7
First Quarter
Jan 15
Full

Hourly Weather History & Observations

Time (CST) Temp. Windchill Dew Point Humidity Pressure Visibility Wind Dir Wind Speed Gust Speed Precip Events Conditions
12:53 AM 35.1 °F 28.6 °F 25.0 °F 67% 29.77 in 10.0 mi NNW 8.1 mph - N/A   Clear
1:53 AM 37.0 °F 29.8 °F 26.1 °F 65% 29.78 in 10.0 mi North 10.4 mph - N/A   Clear
2:53 AM 35.1 °F 27.4 °F 26.1 °F 70% 29.78 in 10.0 mi North 10.4 mph - N/A   Clear
3:53 AM 34.0 °F 25.5 °F 26.1 °F 73% 29.79 in 10.0 mi North 11.5 mph - N/A   Clear
4:53 AM 32.0 °F 23.0 °F 26.1 °F 79% 29.82 in 10.0 mi NNE 11.5 mph - N/A   Clear
5:53 AM 28.9 °F 19.2 °F 25.0 °F 85% 29.85 in 10.0 mi North 11.5 mph - N/A   Partly Cloudy
6:15 AM 28.9 °F 17.7 °F 24.1 °F 82% 29.81 in 10.0 mi NNE 15.0 mph - N/A   Mostly Cloudy
6:39 AM 28.0 °F 17.5 °F 24.1 °F 85% 29.81 in 10.0 mi NNE 12.7 mph - N/A   Overcast
6:53 AM 28.0 °F 18.1 °F 24.1 °F 85% 29.88 in 10.0 mi NNE 11.5 mph - N/A   Overcast
7:11 AM 27.0 °F 16.1 °F 23.0 °F 85% 29.82 in 9.0 mi NNE 12.7 mph - N/A   Overcast
7:53 AM 26.1 °F 13.1 °F 23.0 °F 88% 29.89 in 8.0 mi NNE 17.3 mph 23.0 mph N/A   Overcast
8:53 AM 25.0 °F 12.2 °F 21.9 °F 88% 29.89 in 6.0 mi NNE 16.1 mph - N/A   Overcast
9:53 AM 25.0 °F 13.1 °F 21.0 °F 85% 29.90 in 6.0 mi NNE 13.8 mph - N/A   Overcast
10:53 AM 25.0 °F 13.6 °F 21.0 °F 85% 29.91 in 7.0 mi NNE 12.7 mph - N/A   Overcast
11:53 AM 23.0 °F 11.7 °F 19.0 °F 85% 29.90 in 6.0 mi NNE 11.5 mph - N/A   Overcast
12:53 PM 21.0 °F 6.6 °F 16.0 °F 81% 29.86 in 9.0 mi NNE 17.3 mph - N/A   Overcast
1:16 PM 21.0 °F 6.2 °F 14.0 °F 74% 29.77 in 10.0 mi NNE 18.4 mph 24.2 mph N/A   Overcast
1:43 PM 19.9 °F 6.2 °F 12.9 °F 74% 29.77 in 10.0 mi North 15.0 mph - N/A   Overcast
1:53 PM 19.9 °F 5.2 °F 12.0 °F 71% 29.84 in 10.0 mi North 17.3 mph 24.2 mph N/A   Overcast
2:45 PM 19.0 °F 4.0 °F 10.9 °F 71% 29.78 in 10.0 mi NNE 17.3 mph - N/A   Overcast
2:53 PM 19.0 °F 4.0 °F 10.9 °F 71% 29.86 in 10.0 mi North 17.3 mph - N/A   Overcast
3:53 PM 16.0 °F -1.3 °F 9.0 °F 74% 29.89 in 10.0 mi North 20.7 mph - N/A   Overcast
4:53 PM 14.0 °F -1.4 °F 7.0 °F 74% 29.94 in 5.0 mi North 15.0 mph - 0.00 in Snow Light Snow
5:53 PM 10.0 °F -8.1 °F 3.9 °F 76% 29.98 in 9.0 mi North 18.4 mph - 0.00 in   Overcast
6:53 PM 9.0 °F -9.0 °F 3.0 °F 77% 29.99 in 10.0 mi North 17.3 mph 26.5 mph 0.00 in   Overcast
7:11 PM 9.0 °F -7.9 °F 3.0 °F 77% 29.90 in 10.0 mi North 15.0 mph - N/A   Overcast
7:53 PM 9.0 °F -9.5 °F 3.0 °F 77% 30.04 in 10.0 mi North 18.4 mph - 0.00 in   Overcast
8:06 PM 9.0 °F -8.5 °F 3.0 °F 77% 29.93 in 10.0 mi North 16.1 mph - N/A   Overcast
8:53 PM 9.0 °F -9.0 °F 3.0 °F 77% 30.05 in 9.0 mi North 17.3 mph - N/A   Overcast
9:53 PM 8.1 °F -11.2 °F 3.0 °F 80% 30.05 in 9.0 mi NNW 19.6 mph 27.6 mph 0.00 in   Overcast
10:13 PM 8.1 °F -10.7 °F 3.0 °F 80% 29.95 in 4.0 mi NNW 18.4 mph 25.3 mph 0.00 in Snow Light Snow
10:53 PM 8.1 °F -10.7 °F 3.9 °F 83% 30.09 in 6.0 mi NNW 18.4 mph - 0.00 in Snow Light Snow
11:53 PM 8.1 °F -11.7 °F 3.0 °F 80% 30.09 in 5.0 mi North 20.7 mph 24.2 mph 0.00 in Snow Light Snow